GLOBALSTAR M061 [-]

Last updated on July 6, 2021, 3:36 p.m. UTC

1 25964U 99062D   21186.82818382 -.00000073  00000-0  11491-3 0  9990
2 25964  51.9815 325.4143 0006765 131.8639  22.5312 11.76733659951406
UTC
Height (km)
Latitude
Longitude
Inclination
Orbital Period
UTC large
Height (km)
Speed (km/s)
/
Latitude / Longitude
Inclination (degrees)
Orbital Period (minutes)
Azimuth
Elevation
Range (km)
Doppler Factor
iOS Compass Heading
iOS Angle